DW8097 Weather Reports


time (UTC)temp
F
wind
direction
speed
knots
gust
knots
rain 1hr
in
rain 24hr
in
rain mn
in
humidity
%
barometer
mb
20260903074518 69 219 0.0 0.0 0.00 0.12 0.00 92 1008.3
20260903073016 69 219 0.0 0.0 0.00 0.12 0.00 94 1008.3
20260903071515 69 211 0.0 0.0 0.00 0.12 0.00 92 1008.2
20260903070015 69 211 0.0 0.0 0.00 0.54 0.00 92 1008.3
20260903064513 69 222 0.0 0.0 0.00 0.54 0.00 92 1008.5
20260903063010 69 222 0.0 0.0 0.00 0.54 0.00 92 1008.5
20260903061507 70 222 0.0 0.0 0.00 0.54 0.00 93 1008.6
20260903060006 69 222 0.0 0.0 0.00 0.54 0.00 92 1008.6
20260903054506 69 227 0.0 0.0 0.00 0.54 0.00 91 1008.7
20260903053002 70 227 0.0 0.0 0.00 0.54 0.00 91 1008.7
20260903051503 70 227 0.0 0.0 0.00 0.54 0.00 92 1008.8
20260903050106 70 227 0.0 0.0 0.00 0.54 0.00 91 1008.7
20260903044603 70 228 0.0 0.0 0.00 0.54 0.00 91 1008.6
20260903043109 70 228 0.0 0.0 0.00 0.54 0.00 91 1008.7
20260903041556 70 228 0.0 0.0 0.00 0.54 0.00 90 1008.8
20260903040055 71 248 0.0 0.0 0.00 0.54 0.00 90 1008.8
20260903034556 71 250 0.0 0.0 0.00 0.54 0.00 90 1008.8
20260903033048 72 252 0.0 0.0 0.00 0.54 0.00 90 1008.9
20260903031553 72 220 0.0 0.0 0.00 0.54 0.00 89 1008.9
20260903030047 72 175 0.0 0.0 0.00 0.54 0.00 89 1009.0
20260903024543 73 227 0.0 0.0 0.00 0.54 0.00 88 1008.9
20260903023039 73 248 0.0 0.0 0.00 0.54 0.00 87 1009.0
20260903021548 74 215 0.0 0.0 0.00 0.54 0.00 87 1008.7
20260903020035 74 215 0.0 0.0 0.00 0.54 0.00 85 1008.6
20260903014533 75 215 0.0 0.0 0.00 0.54 0.00 84 1008.5
20260903013100 76 215 0.0 0.0 0.00 0.54 0.00 82 1008.3
20260903011602 76 215 0.0 0.0 0.00 0.54 0.00 81 1008.3
20260903010025 77 215 0.0 0.0 0.00 0.54 0.00 78 1008.2
20260903004524 79 215 0.0 0.0 0.00 0.54 0.00 74 1008.1
20260903003051 82 160 0.0 0.9 0.00 0.54 0.00 68 1008.2
20260903001551 83 163 0.0 0.0 0.00 0.54 0.00 66 1008.1
20260903000049 84 169 0.0 0.0 0.00 0.54 0.00 63 1008.1
20260902234547 85 188 0.0 4.3 0.00 0.54 0.00 61 1008.1
20260902233046 87 121 0.0 3.5 0.00 0.54 0.00 59 1008.0
20260902231545 87 118 0.9 6.1 0.00 0.54 0.00 58 1008.1
20260902230019 88 109 0.0 3.5 0.00 0.54 0.00 57 1008.2
20260902224516 89 81 0.0 3.5 0.00 0.54 0.00 55 1008.2
20260902223044 88 113 2.6 7.0 0.00 0.54 0.00 56 1008.1
20260902221544 89 122 0.9 6.1 0.00 0.54 0.00 56 1008.2
20260902220045 89 117 1.7 6.1 0.00 0.54 0.00 56 1008.3
20260902214539 89 90 0.9 6.1 0.00 0.54 0.00 56 1008.3
20260902213037 89 97 2.6 7.0 0.00 0.54 0.00 55 1008.4
20260902211543 89 109 4.3 8.7 0.00 0.54 0.00 54 1008.4
20260902210105 90 71 1.7 6.1 0.00 0.54 0.00 52 1008.5
20260902204539 89 119 0.0 7.8 0.00 0.54 0.00 54 1008.6
20260902203033 89 66 2.6 7.8 0.00 0.54 0.00 55 1008.6
20260902201534 89 126 0.9 7.8 0.00 0.54 0.00 54 1008.7
20260902200025 87 5 0.9 4.3 0.00 0.54 0.00 58 1008.8
20260902194525 87 291 0.0 4.3 0.00 0.54 0.00 59 1009.0
20260902193020 88 49 0.0 7.0 0.00 0.54 0.00 55 1009.2
20260902191518 89 126 2.6 7.8 0.00 0.54 0.00 55 1009.2
20260902190014 87 84 0.0 6.1 0.00 0.54 0.00 57 1009.2
20260902184512 87 121 4.3 7.8 0.00 0.54 0.00 57 1009.3
20260902183008 86 182 0.0 3.5 0.00 0.54 0.00 56 1009.7
20260902181504 88 53 0.0 1.7 0.00 0.54 0.00 56 1009.9
20260902180116 87 119 1.7 7.0 0.00 0.54 0.00 56 1010.0
20260902174559 85 125 0.0 1.7 0.00 0.54 0.00 59 1010.2
20260902173051 86 110 0.0 2.6 0.00 0.54 0.00 59 1010.4
20260902171547 84 71 0.0 4.3 0.00 0.54 0.00 64 1010.5
20260902170042 82 49 0.0 3.5 0.00 0.54 0.00 65 1010.3
20260902164535 80 86 0.0 3.5 0.00 0.54 0.00 68 1010.5
20260902163032 80 138 0.9 6.1 0.00 0.54 0.00 68 1010.6
20260902161527 79 132 1.7 7.8 0.00 0.54 0.00 70 1010.4
20260902160021 80 122 0.9 5.2 0.00 0.54 0.54 69 1010.4
20260902154552 78 116 0.0 7.8 0.00 0.54 0.54 71 1010.5
20260902153051 77 185 0.0 5.2 0.00 0.54 0.54 73 1010.5
20260902151550 76 150 0.9 6.1 0.00 0.54 0.54 75 1010.4
20260902150047 73 212 0.0 4.3 0.00 0.54 0.54 80 1010.2
20260902144559 72 173 0.9 6.1 0.00 0.54 0.54 80 1010.4
20260902143046 72 178 0.9 4.3 0.00 0.54 0.54 81 1010.8
20260902141518 71 180 0.0 5.2 0.00 0.54 0.54 80 1010.6
20260902140014 71 165 0.0 7.0 0.00 0.54 0.54 82 1010.5
20260902134516 69 157 0.0 7.0 0.00 0.54 0.54 85 1010.6
20260902133012 68 170 2.6 7.0 0.00 0.54 0.54 88 1010.7
20260902131511 66 173 0.0 4.3 0.00 0.54 0.54 91 1011.0
20260902130011 65 196 0.0 1.7 0.00 0.54 0.54 92 1011.0
20260902124508 64 234 0.0 0.0 0.00 0.54 0.54 91 1010.4
20260902123007 64 343 0.0 0.0 0.00 0.54 0.54 91 1010.5
20260902121505 64 205 0.0 0.0 0.00 0.54 0.54 91 1010.1
20260902120005 64 5 0.0 0.0 0.00 0.54 0.54 90 1010.8
20260902114502 64 261 0.0 0.0 0.00 0.54 0.54 89 1011.2
20260902113001 64 184 0.0 0.0 0.00 0.54 0.54 88 1011.5
20260902111600 65 240 0.0 0.9 0.00 0.54 0.54 87 1011.9
20260902110106 65 188 0.9 5.2 0.00 0.54 0.54 89 1011.9
20260902104538 65 232 0.9 13.0 0.00 0.54 0.54 89 1012.2
20260902103026 65 225 5.2 9.6 0.00 0.54 0.54 90 1012.4
20260902101529 67 173 0.9 3.5 0.00 0.54 0.54 89 1010.6
20260902100021 67 167 0.9 7.0 0.00 0.54 0.54 89 1010.3
20260902094520 67 157 0.0 3.5 0.00 0.54 0.54 88 1010.0
20260902093032 67 115 0.0 7.0 0.00 0.54 0.54 88 1010.0
20260902091517 67 82 1.7 6.1 0.01 0.54 0.54 89 1010.2
20260902090017 67 114 0.0 3.5 0.02 0.54 0.54 90 1011.0
20260902084515 67 80 1.7 4.3 0.04 0.54 0.54 90 1010.5
20260902083015 67 293 0.0 2.6 0.05 0.54 0.54 90 1010.2
20260902081512 67 219 0.0 9.6 0.08 0.53 0.53 87 1010.2
20260902080010 67 59 0.0 4.3 0.22 0.52 0.52 87 1010.4